User: anonymous   Login
Location: Betzi
(47.2343°N, 9.5260°E)
Time: 11:10:15
(UTC+00:00)
Language:

Meteor 2-10 Rocket - Orbit

View from above orbital plane
View from above orbital plane
View from above satellite
View from above satellite

Ground track
Ground track

The orbit data is extracted from the following two-line orbital elements,

1 14453U 83109B   22228.09384341  .00000068  00000-0  22294-4 0  9993
2 14453  81.1684   8.9122 0104776   7.9052 352.3746 14.24804246 16065
Epoch (UTC): 16 August 2022 02:15:08
Eccentricity: 0.0104776
inclination: 81.1684°
perigee height: 734 km
apogee height: 884 km
right ascension of ascending node: 8.9122°
argument of perigee: 7.9052°
revolutions per day: 14.24804246
mean anomaly at epoch: 352.3746°
orbit number at epoch: 1606

The dashed part of the orbit path shows where the satellite is in the earth's shadow,  

DLR